logo meteoveneto

Diretta Meteo Monte Scuro, Italiasabato 22 giugno ore 06:55

Mappa
Sereno 22 °C Sereno 24 Ore: T.min 20 T.max 26
Ponente Nord Km/h 5.5 Punto di rugiada: 11 °C Umidità: 49% Visibilità: 0 Km
Il sole sorge alle: 05:26 Il sole tramonta alle: 20:26
22 Giugno 2024 06:55 tempo osservato: Sereno Sereno 22 49 1023 vento: Nord N 5.5
22 Giugno 2024 05:55 tempo osservato: Sereno Sereno 21 49 1023 vento: Nord SO 7.4
22 Giugno 2024 04:55 tempo osservato: Sereno Sereno 21 49 1023 vento: Nord SO 9.3
22 Giugno 2024 03:55 tempo osservato: Sereno Sereno 22 53 1023 vento: Nord N 3.7
22 Giugno 2024 02:55 tempo osservato: Sereno Sereno 21 56 1023 vento: Nord N 5.5
22 Giugno 2024 01:55 tempo osservato: Sereno Sereno 21 52 1024 vento: Nord N 5.5
22 Giugno 2024 00:55 tempo osservato: Sereno Sereno 21 49 1025 vento: Nord N 3.7
21 Giugno 2024 23:55 tempo osservato: Sereno Sereno 21 52 1025 vento: Nord N 3.7
21 Giugno 2024 22:55 tempo osservato: Sereno Sereno 21 52 1025 vento: Nord N 5.5
21 Giugno 2024 21:55 tempo osservato: Sereno Sereno 21 60 1025 vento: Nord N 3.7
21 Giugno 2024 20:55 tempo osservato: Sereno Sereno 21 64 1025 vento: Nord N 3.7
21 Giugno 2024 19:55 tempo osservato: Sereno Sereno 23 56 1025 vento: Nord N 3.7
21 Giugno 2024 18:55 tempo osservato: Sereno Sereno 24 57 1025 vento: Nord N 3.7
21 Giugno 2024 17:55 tempo osservato: Sereno Sereno 25 53 1025 vento: Nord N 3.7
21 Giugno 2024 16:55 tempo osservato: Sereno Sereno 26 47 1026 vento: Nord N 3.7
21 Giugno 2024 15:55 tempo osservato: Sereno Sereno 26 47 1026 vento: Nord N 3.7
21 Giugno 2024 14:55 tempo osservato: Sereno Sereno 25 50 1027 vento: Nord N 3.7
21 Giugno 2024 13:55 tempo osservato: Sereno Sereno 25 53 1027 vento: Nord N 5.5
21 Giugno 2024 12:55 tempo osservato: Sereno Sereno 25 50 1027 vento: Nord N 3.7
21 Giugno 2024 11:55 tempo osservato: Sereno Sereno 25 53 1027 vento: Nord N 3.7
21 Giugno 2024 10:55 tempo osservato: Sereno Sereno 24 47 1027 vento: Nord E/NE 11.1
21 Giugno 2024 09:55 tempo osservato: Sereno Sereno 23 49 1027 vento: Nord E 9.3
21 Giugno 2024 08:55 tempo osservato: Sereno Sereno 22 56 1026 vento: Nord E 13
21 Giugno 2024 07:55 tempo osservato: Sereno Sereno 20 56 1026 vento: Nord N 0